Weather History for Eagle River, WI

Change the Weather History Date:

Tuesday, October 4, 2011

  Actual Average Record
Temperature  
Mean Temperature 56 °F -  
Max Temperature 75 °F 61 °F 75 °F (2007)
Min Temperature 37 °F 35 °F 19 °F (1999)
Degree Days  
Heating Degree Days 9    
Growing Degree Days 6 (Base 50)    
Moisture  
Dew Point 44 °F    
Average Humidity 71    
Maximum Humidity 100    
Minimum Humidity 30    
Precipitation  
Precipitation 0.00 in - - ()
Sea Level Pressure  
Sea Level Pressure 30.22 in    
Wind  
Wind Speed 2 mph (SW)    
Max Wind Speed 10 mph    
Max Gust Speed -    
Visibility 8 miles    
Events Fog    
Averages and records for this station are not official NWS values.
T = Trace of Precipitation, MM = Missing Value Source: NWS Daily Summary

Daily Weather History Graph

Daily Weather History Graph

Search for Another Location

Airport:

Trip Planner

Search our weather history database for the weather conditions in past years. The results will help you decide how hot, cold, wet, or windy it might be!

Date:

Astronomy

Oct. 04, 2011 Rise Set
Actual Time 6:58 AM CDT 6:31 PM CDT
Civil Twilight 6:29 AM CDT 7:01 PM CDT
Nautical Twilight 5:54 AM CDT 7:36 PM CDT
Astronomical Twilight 5:19 AM CDT 8:11 PM CDT
Moon 2:53 PM CDT (10/4) No Moon Set
Length of Visible Light 12h 32m
Length of Day
11h 32m
First Quarter, 56% of the Moon is Illuminated
Oct 4
First Quarter
Oct 11
Full
Oct 19
Last Quarter
Oct 26
New
Nov 2
First Quarter

Hourly Weather History & Observations

Time (CDT) Temp. Dew Point Humidity Pressure Visibility Wind Dir Wind Speed Gust Speed Precip Events Conditions
12:15 AM - - N/A% 30.23 in 0.8 mi Calm Calm - N/A   Mist
12:35 AM 43.3 °F 43.5 °F 100% 30.24 in 0.8 mi Calm Calm - N/A   Mist
12:55 AM 43.0 °F 43.2 °F 100% 30.24 in 1.0 mi Calm Calm - N/A   Mist
1:15 AM 42.4 °F 42.6 °F 100% 30.24 in 3.0 mi Calm Calm - N/A   Clear
1:35 AM - - N/A% 30.24 in 1.0 mi Calm Calm - N/A   Mist
1:55 AM 40.6 °F 41.0 °F 100% 30.23 in 1.2 mi Calm Calm - N/A   Mist
2:15 AM 41.0 °F 41.2 °F 100% 30.24 in 3.0 mi Calm Calm - N/A   Clear
2:35 AM 41.5 °F 41.7 °F 100% 30.23 in 10.0 mi Calm Calm - N/A   Clear
2:55 AM 40.8 °F 41.0 °F 100% 30.23 in 10.0 mi Calm Calm - N/A   Clear
3:15 AM 40.5 °F 40.6 °F 100% 30.23 in 10.0 mi Calm Calm - N/A   Clear
3:35 AM 39.7 °F 39.9 °F 100% 30.23 in 1.2 mi Calm Calm - N/A   Mist
3:55 AM 39.2 °F 39.4 °F 100% 30.24 in 1.0 mi Calm Calm - N/A   Mist
4:15 AM 39.2 °F 39.4 °F 100% 30.24 in 7.0 mi Calm Calm - N/A   Clear
4:35 AM 38.7 °F 38.8 °F 100% 30.24 in 0.8 mi Calm Calm - N/A   Mist
4:55 AM 38.3 °F 38.5 °F 100% 30.24 in 0.8 mi Calm Calm - N/A   Mist
5:15 AM 38.3 °F 38.5 °F 100% 30.24 in 5.0 mi Calm Calm - N/A   Clear
5:35 AM 38.8 °F 39.0 °F 100% 30.24 in 7.0 mi Calm Calm - N/A   Mostly Cloudy
5:55 AM 38.5 °F 38.5 °F 100% 30.24 in 0.8 mi Calm Calm - N/A   Overcast
6:15 AM 37.9 °F 37.9 °F 100% 30.24 in 0.5 mi Calm Calm - N/A Fog Fog
6:55 AM 37.6 °F 37.8 °F 100% 30.25 in 2.0 mi Calm Calm - N/A   Scattered Clouds
7:15 AM 38.1 °F 38.1 °F 100% 30.25 in 10.0 mi Calm Calm - N/A   Clear
7:35 AM 37.4 °F 37.6 °F 100% 30.25 in 10.0 mi Calm Calm - N/A   Clear
7:55 AM - - N/A% 30.26 in 10.0 mi Calm Calm - N/A   Clear
8:15 AM 42.3 °F 42.3 °F 100% 30.26 in 10.0 mi Calm Calm - N/A   Clear
8:35 AM - - N/A% 30.27 in 10.0 mi Calm Calm - N/A   Clear
8:55 AM 51.1 °F 50.0 °F 96% 30.27 in 10.0 mi Calm Calm - N/A   Clear
9:15 AM 54.0 °F 49.5 °F 85% 30.27 in 10.0 mi SW 3.5 mph - N/A   Clear
9:35 AM 56.7 °F 48.4 °F 74% 30.26 in 10.0 mi SW 5.8 mph - N/A   Clear
9:55 AM 59.0 °F 47.7 °F 66% 30.27 in 10.0 mi SW 4.6 mph - N/A   Clear
10:15 AM 61.3 °F 47.7 °F 61% 30.26 in 10.0 mi WSW 6.9 mph - N/A   Clear
10:55 AM 65.1 °F 48.4 °F 55% 30.25 in 10.0 mi SW 3.5 mph - N/A   Clear
11:15 AM 66.9 °F 48.7 °F 52% 30.25 in 10.0 mi WSW 6.9 mph - N/A   Clear
11:35 AM 68.4 °F 48.7 °F 49% 30.25 in 10.0 mi WSW 5.8 mph - N/A   Clear
11:55 AM 69.6 °F 48.0 °F 46% 30.24 in 10.0 mi WSW 4.6 mph - N/A   Clear
12:15 PM 70.9 °F 47.1 °F 43% 30.24 in 10.0 mi WSW 6.9 mph - N/A   Clear
12:35 PM 72.0 °F 46.9 °F 41% 30.23 in 10.0 mi WSW 5.8 mph - N/A   Clear
12:55 PM 72.9 °F 46.4 °F 39% 30.22 in 10.0 mi WSW 10.4 mph - N/A   Clear
1:15 PM 73.4 °F 44.8 °F 36% 30.22 in 10.0 mi WSW 8.1 mph - N/A   Clear
1:35 PM 74.1 °F 43.7 °F 34% 30.20 in 10.0 mi SSW 6.9 mph - N/A   Clear
1:55 PM 75.0 °F 43.0 °F 32% 30.20 in 10.0 mi SW 5.8 mph - N/A   Clear
2:15 PM 75.4 °F 42.4 °F 31% 30.19 in 10.0 mi SW 6.9 mph - N/A   Clear
2:35 PM 75.4 °F 42.1 °F 30% 30.18 in 10.0 mi South 6.9 mph - N/A   Clear
2:55 PM 75.0 °F 41.5 °F 30% 30.18 in 10.0 mi SW 5.8 mph - N/A   Clear
3:15 PM 75.0 °F 42.4 °F 31% 30.18 in 10.0 mi SSW 3.5 mph - N/A   Clear
3:35 PM 75.7 °F 43.2 °F 31% 30.17 in 10.0 mi SW 6.9 mph - N/A   Clear
3:55 PM 75.6 °F 44.1 °F 32% 30.17 in 10.0 mi SW 4.6 mph - N/A   Clear
4:15 PM 75.2 °F 44.2 °F 33% 30.16 in 10.0 mi SW 5.8 mph - N/A   Clear
4:35 PM 74.8 °F 44.4 °F 34% 30.16 in 10.0 mi SW 6.9 mph - N/A   Clear
4:55 PM 73.0 °F 45.5 °F 37% 30.16 in 10.0 mi SW 4.6 mph - N/A   Clear
5:15 PM 73.6 °F 45.5 °F 37% 30.16 in 10.0 mi SSW 3.5 mph - N/A   Clear
5:35 PM 73.2 °F 46.6 °F 39% 30.16 in 10.0 mi South 3.5 mph - N/A   Clear
6:15 PM 70.2 °F 48.4 °F 46% 30.17 in 10.0 mi South 3.5 mph - N/A   Clear
6:35 PM 67.1 °F 49.1 °F 52% 30.17 in 10.0 mi Calm Calm - N/A   Clear
6:55 PM 61.3 °F 51.6 °F 70% 30.17 in 10.0 mi Calm Calm - N/A   Clear
7:15 PM 58.6 °F 51.4 °F 77% 30.17 in 10.0 mi Calm Calm - N/A   Clear
7:35 PM 57.6 °F 51.6 °F 81% 30.17 in 10.0 mi Calm Calm - N/A   Clear
7:55 PM 55.6 °F 51.1 °F 85% 30.18 in 10.0 mi Calm Calm - N/A   Clear
8:15 PM 55.6 °F 49.6 °F 80% 30.18 in 10.0 mi Calm Calm - N/A   Clear
8:35 PM 53.6 °F 49.1 °F 85% 30.18 in 10.0 mi Calm Calm - N/A   Clear
8:55 PM 52.5 °F 49.1 °F 88% 30.19 in 10.0 mi Calm Calm - N/A   Clear
9:35 PM 50.7 °F 49.5 °F 95% 30.19 in 10.0 mi Calm Calm - N/A   Clear
9:55 PM 50.0 °F 50.2 °F 100% 30.19 in 10.0 mi Calm Calm - N/A   Clear
10:15 PM 49.1 °F 49.3 °F 100% 30.20 in 10.0 mi Calm Calm - N/A   Clear
10:35 PM 48.4 °F 48.7 °F 100% 30.20 in 10.0 mi Calm Calm - N/A   Clear
10:55 PM 48.4 °F 48.6 °F 100% 30.20 in 10.0 mi Calm Calm - N/A   Clear
11:15 PM 47.8 °F 48.0 °F 100% 30.20 in 10.0 mi Calm Calm - N/A   Clear
11:35 PM 46.8 °F 47.1 °F 100% 30.20 in 2.5 mi Calm Calm - N/A   Clear